sat.trackr.live / text

‹ back to catalog

STARLINK-1212

NORAD 45223 · 2020-012AX

PAYLOAD ACTIVE UNKNOWN

§ Identity

Operator
Country
US
Launch date
2020-02-17
Launch site
AFETR
Launch vehicle
Mass (kg)
RCS (m²)

Purposes: comms

External: N2YO · Heavens-Above · Gunter

§ Orbital elements

Epoch: 2026-09-20T04:08:49.538976Z

Period
90.88 min
Inclination
53.0346°
Eccentricity
0.0003552
Mean motion
15.84446741 rev/d
Perigee alt
315.5 km
Apogee alt
320.3 km
Semi-major
6,696.0 km
B*
4.3659e-4
RAAN
110.2467°
Arg perigee
142.1926°
Mean anomaly
217.9346°
Rev number
36,616

§ Raw data

STARLINK-12121 45223U 20012AX  26263.17279559  .00102421  00000+0  43659-3 0  99942 45223  53.0346 110.2467 0003552 142.1926 217.9346 15.84446741366168

JSON: /api/v1/satellites/45223 · /tle

For live sub-satellite position, see the globe view (requires WebGL).

§ Visibility from observer

Set your observer location to see the next 7 days of passes ≥ 10°. The values pass through the URL so the page stays shareable.

No JS? Fill the form by hand. The geolocation button needs JavaScript.